Time,TemperatureF,DewpointF,PressureIn,WindDirection,WindDirectionDegrees,WindSpeedMPH,WindSpeedGustMPH,Humidity,HourlyPrecipIn,Conditions,Clouds,dailyrainin,SoftwareType,DateUTC
2013-04-30 00:01:00,51.3,46.9,30.26,SE,137,1.0,6.0,85,0.00,,,0.00,meteohub,2013-04-30 04:01:00,
2013-04-30 00:02:00,51.3,46.9,30.26,SE,135,1.0,6.0,85,0.00,,,0.00,meteohub,2013-04-30 04:02:00,
2013-04-30 00:07:00,51.3,46.9,30.26,SE,129,1.0,5.0,85,0.00,,,0.00,meteohub,2013-04-30 04:07:00,
2013-04-30 00:12:00,51.1,46.8,30.26,SE,132,3.0,5.0,85,0.00,,,0.00,meteohub,2013-04-30 04:12:00,
2013-04-30 00:17:00,51.1,46.8,30.26,SE,139,4.0,5.0,85,0.00,,,0.00,meteohub,2013-04-30 04:17:00,
2013-04-30 00:22:00,51.1,46.8,30.26,SE,133,2.0,5.0,85,0.00,,,0.00,meteohub,2013-04-30 04:22:00,
2013-04-30 00:27:00,51.1,46.8,30.26,SSE,152,3.0,5.0,85,0.00,,,0.00,meteohub,2013-04-30 04:27:00,
2013-04-30 00:32:00,51.1,46.8,30.26,SE,137,3.0,5.0,85,0.00,,,0.00,meteohub,2013-04-30 04:32:00,
2013-04-30 00:37:00,51.1,46.8,30.26,ESE,115,3.0,6.0,85,0.00,,,0.00,meteohub,2013-04-30 04:37:00,
2013-04-30 00:42:00,50.9,46.2,30.26,SE,145,1.0,6.0,84,0.00,,,0.00,meteohub,2013-04-30 04:42:00,
2013-04-30 00:47:00,50.9,46.2,30.26,ESE,122,3.0,5.0,84,0.00,,,0.00,meteohub,2013-04-30 04:47:00,
2013-04-30 00:52:00,50.9,46.2,30.26,SE,127,0.0,4.0,84,0.00,,,0.00,meteohub,2013-04-30 04:52:00,
2013-04-30 00:57:00,50.7,46.4,30.25,SE,137,2.0,4.0,85,0.00,,,0.00,meteohub,2013-04-30 04:57:00,
2013-04-30 01:02:00,50.7,46.4,30.25,SE,132,1.0,5.0,85,0.00,,,0.00,meteohub,2013-04-30 05:02:00,
2013-04-30 01:07:00,50.7,46.4,30.25,SE,132,1.0,5.0,85,0.00,,,0.00,meteohub,2013-04-30 05:07:00,
2013-04-30 01:12:00,50.5,46.2,30.25,SE,132,1.0,4.0,85,0.00,,,0.00,meteohub,2013-04-30 05:12:00,
2013-04-30 01:17:00,50.5,46.2,30.25,SE,131,0.0,4.0,85,0.00,,,0.00,meteohub,2013-04-30 05:17:00,
2013-04-30 01:22:00,50.4,46.4,30.25,SE,139,0.0,3.0,86,0.00,,,0.00,meteohub,2013-04-30 05:22:00,
2013-04-30 01:27:00,50.4,46.4,30.25,SE,138,0.0,3.0,86,0.00,,,0.00,meteohub,2013-04-30 05:27:00,
2013-04-30 01:32:00,50.4,46.4,30.25,SE,139,2.0,3.0,86,0.00,,,0.00,meteohub,2013-04-30 05:32:00,
2013-04-30 01:37:00,50.4,46.4,30.25,ESE,117,3.0,3.0,86,0.00,,,0.00,meteohub,2013-04-30 05:37:00,
2013-04-30 01:42:00,50.5,46.6,30.25,SE,132,3.0,5.0,86,0.00,,,0.00,meteohub,2013-04-30 05:42:00,
2013-04-30 01:47:00,50.7,46.8,30.25,SE,126,2.0,5.0,86,0.00,,,0.00,meteohub,2013-04-30 05:47:00,
2013-04-30 01:52:00,50.7,46.9,30.25,SE,134,1.0,6.0,87,0.00,,,0.00,meteohub,2013-04-30 05:52:00,
2013-04-30 01:57:00,50.7,46.9,30.25,SSE,160,4.0,6.0,87,0.00,,,0.00,meteohub,2013-04-30 05:57:00,
2013-04-30 02:02:00,50.7,46.9,30.25,ESE,121,4.0,6.0,87,0.00,,,0.00,meteohub,2013-04-30 06:02:00,
2013-04-30 02:07:00,50.7,46.9,30.25,SE,141,4.0,6.0,87,0.00,,,0.00,meteohub,2013-04-30 06:07:00,
2013-04-30 02:12:00,50.7,46.8,30.25,SE,125,3.0,6.0,86,0.00,,,0.00,meteohub,2013-04-30 06:12:00,
2013-04-30 02:17:00,50.7,46.8,30.25,SE,124,1.0,6.0,86,0.00,,,0.00,meteohub,2013-04-30 06:17:00,
2013-04-30 02:22:00,50.7,46.8,30.25,SE,140,3.0,6.0,86,0.00,,,0.00,meteohub,2013-04-30 06:22:00,
2013-04-30 02:27:00,50.7,46.8,30.25,ESE,117,1.0,6.0,86,0.00,,,0.00,meteohub,2013-04-30 06:27:00,
2013-04-30 02:32:00,50.7,46.8,30.25,ESE,119,0.0,6.0,86,0.00,,,0.00,meteohub,2013-04-30 06:32:00,
2013-04-30 02:37:00,50.7,46.4,30.25,SE,143,4.0,5.0,85,0.00,,,0.00,meteohub,2013-04-30 06:37:00,
2013-04-30 02:42:00,50.7,46.0,30.25,SE,135,4.0,6.0,84,0.00,,,0.00,meteohub,2013-04-30 06:42:00,
2013-04-30 02:47:00,50.7,46.0,30.25,SE,134,3.0,7.0,84,0.00,,,0.00,meteohub,2013-04-30 06:47:00,
2013-04-30 02:52:00,50.7,46.0,30.25,SE,137,4.0,8.0,84,0.00,,,0.00,meteohub,2013-04-30 06:52:00,
2013-04-30 02:57:00,50.7,45.7,30.25,SE,131,5.0,8.0,83,0.00,,,0.00,meteohub,2013-04-30 06:57:00,
2013-04-30 03:02:00,50.7,45.7,30.25,SE,137,3.0,8.0,83,0.00,,,0.00,meteohub,2013-04-30 07:02:00,
2013-04-30 03:07:00,50.7,45.7,30.25,SE,129,2.0,8.0,83,0.00,,,0.00,meteohub,2013-04-30 07:07:00,
2013-04-30 03:12:00,50.7,45.5,30.25,SE,140,1.0,8.0,82,0.00,,,0.00,meteohub,2013-04-30 07:12:00,
2013-04-30 03:17:00,50.7,45.5,30.25,SE,132,6.0,6.0,82,0.00,,,0.00,meteohub,2013-04-30 07:17:00,
2013-04-30 03:22:00,50.7,45.5,30.25,ESE,104,4.0,7.0,82,0.00,,,0.00,meteohub,2013-04-30 07:22:00,
2013-04-30 03:27:00,50.7,45.1,30.25,ESE,107,1.0,7.0,81,0.00,,,0.00,meteohub,2013-04-30 07:27:00,
2013-04-30 03:32:00,50.7,45.1,30.25,SSE,152,2.0,7.0,81,0.00,,,0.00,meteohub,2013-04-30 07:32:00,
2013-04-30 03:37:00,50.7,44.8,30.25,ESE,119,3.0,5.0,80,0.00,,,0.00,meteohub,2013-04-30 07:37:00,
2013-04-30 03:42:00,50.7,44.8,30.25,SE,125,4.0,5.0,80,0.00,,,0.00,meteohub,2013-04-30 07:42:00,
2013-04-30 03:47:00,50.7,44.8,30.25,SE,135,1.0,5.0,80,0.00,,,0.00,meteohub,2013-04-30 07:47:00,
2013-04-30 03:52:00,50.7,44.8,30.25,SE,143,2.0,5.0,80,0.00,,,0.00,meteohub,2013-04-30 07:52:00,
2013-04-30 03:57:00,50.7,44.8,30.25,SE,133,4.0,5.0,80,0.00,,,0.00,meteohub,2013-04-30 07:57:00,
2013-04-30 04:02:00,50.7,44.8,30.25,ESE,119,2.0,7.0,80,0.00,,,0.00,meteohub,2013-04-30 08:02:00,
2013-04-30 04:07:00,50.5,44.6,30.25,ESE,120,1.0,7.0,80,0.00,,,0.00,meteohub,2013-04-30 08:07:00,
2013-04-30 04:12:00,50.4,44.8,30.25,SE,137,0.0,6.0,81,0.00,,,0.00,meteohub,2013-04-30 08:12:00,
2013-04-30 04:17:00,50.4,44.8,30.25,ESE,119,1.0,5.0,81,0.00,,,0.00,meteohub,2013-04-30 08:17:00,
2013-04-30 04:22:00,50.4,45.1,30.25,SE,142,2.0,5.0,82,0.00,,,0.00,meteohub,2013-04-30 08:22:00,
2013-04-30 04:27:00,50.4,45.1,30.25,SE,129,0.0,8.0,82,0.00,,,0.00,meteohub,2013-04-30 08:27:00,
2013-04-30 04:32:00,50.2,45.0,30.25,East,96,2.0,8.0,82,0.00,,,0.00,meteohub,2013-04-30 08:32:00,
2013-04-30 04:37:00,50.0,44.8,30.25,East,96,0.0,4.0,82,0.00,,,0.00,meteohub,2013-04-30 08:37:00,
2013-04-30 04:42:00,49.8,44.8,30.25,East,96,1.0,2.0,83,0.00,,,0.00,meteohub,2013-04-30 08:42:00,
2013-04-30 04:47:00,49.6,44.8,30.25,East,100,3.0,3.0,83,0.00,,,0.00,meteohub,2013-04-30 08:47:00,
2013-04-30 04:52:00,49.6,45.0,30.25,SSE,149,1.0,3.0,84,0.00,,,0.00,meteohub,2013-04-30 08:52:00,
2013-04-30 04:58:00,49.6,45.3,30.25,ESE,120,3.0,4.0,85,0.00,,,0.00,meteohub,2013-04-30 08:58:00,
2013-04-30 05:03:00,49.8,45.5,30.26,SE,139,1.0,4.0,85,0.00,,,0.00,meteohub,2013-04-30 09:03:00,
2013-04-30 05:08:00,50.0,45.7,30.26,ESE,115,0.0,4.0,85,0.00,,,0.00,meteohub,2013-04-30 09:08:00,
2013-04-30 05:13:00,50.2,45.9,30.26,SE,125,0.0,3.0,85,0.00,,,0.00,meteohub,2013-04-30 09:13:00,
2013-04-30 05:18:00,50.2,45.9,30.26,East,87,2.0,3.0,85,0.00,,,0.00,meteohub,2013-04-30 09:18:00,
2013-04-30 05:23:00,50.4,46.0,30.26,SE,130,1.0,4.0,85,0.00,,,0.00,meteohub,2013-04-30 09:23:00,
2013-04-30 05:28:00,50.4,46.0,30.26,ESE,122,1.0,4.0,85,0.00,,,0.00,meteohub,2013-04-30 09:28:00,
2013-04-30 05:33:00,50.4,46.0,30.27,SE,132,0.0,4.0,85,0.00,,,0.00,meteohub,2013-04-30 09:33:00,
2013-04-30 05:38:00,50.4,46.0,30.27,ESE,120,0.0,5.0,85,0.00,,,0.00,meteohub,2013-04-30 09:38:00,
2013-04-30 05:43:00,50.4,46.0,30.27,ESE,110,0.0,5.0,85,0.00,,,0.00,meteohub,2013-04-30 09:43:00,
2013-04-30 05:48:00,50.4,46.0,30.27,East,89,0.0,5.0,85,0.00,,,0.00,meteohub,2013-04-30 09:48:00,
2013-04-30 05:53:00,50.2,45.9,30.27,ENE,68,4.0,4.0,85,0.00,,,0.00,meteohub,2013-04-30 09:53:00,
2013-04-30 05:58:00,50.2,45.9,30.27,ESE,116,1.0,5.0,85,0.00,,,0.00,meteohub,2013-04-30 09:58:00,
2013-04-30 06:03:00,50.0,45.7,30.27,ESE,113,2.0,5.0,85,0.00,,,0.00,meteohub,2013-04-30 10:03:00,
2013-04-30 06:08:00,50.0,45.7,30.27,East,92,1.0,5.0,85,0.00,,,0.00,meteohub,2013-04-30 10:08:00,
2013-04-30 06:13:00,50.2,45.9,30.27,East,81,3.0,3.0,85,0.00,,,0.00,meteohub,2013-04-30 10:13:00,
2013-04-30 06:18:00,50.2,45.9,30.27,ENE,62,4.0,6.0,85,0.00,,,0.00,meteohub,2013-04-30 10:18:00,
2013-04-30 06:23:00,50.4,46.0,30.28,ENE,62,1.0,6.0,85,0.00,,,0.00,meteohub,2013-04-30 10:23:00,
2013-04-30 06:28:00,50.4,46.0,30.28,ESE,123,1.0,6.0,85,0.00,,,0.00,meteohub,2013-04-30 10:28:00,
2013-04-30 06:33:00,50.5,46.2,30.28,East,90,2.0,6.0,85,0.00,,,0.00,meteohub,2013-04-30 10:33:00,
2013-04-30 06:38:00,50.5,46.2,30.28,ESE,114,3.0,6.0,85,0.00,,,0.00,meteohub,2013-04-30 10:38:00,
2013-04-30 06:43:00,50.7,46.0,30.28,SE,128,2.0,7.0,84,0.00,,,0.00,meteohub,2013-04-30 10:43:00,
2013-04-30 06:48:00,51.1,46.4,30.28,East,82,3.0,7.0,84,0.00,,,0.00,meteohub,2013-04-30 10:48:00,
2013-04-30 06:53:00,51.3,46.2,30.29,ESE,110,1.0,7.0,83,0.00,,,0.00,meteohub,2013-04-30 10:53:00,
2013-04-30 06:58:00,51.4,46.2,30.29,ESE,118,2.0,6.0,82,0.00,,,0.00,meteohub,2013-04-30 10:58:00,
2013-04-30 07:03:00,51.6,46.2,30.29,ESE,102,2.0,6.0,82,0.00,,,0.00,meteohub,2013-04-30 11:03:00,
2013-04-30 07:08:00,52.2,46.6,30.29,SE,145,3.0,5.0,81,0.00,,,0.00,meteohub,2013-04-30 11:08:00,
2013-04-30 07:13:00,52.3,46.4,30.30,East,97,2.0,6.0,80,0.00,,,0.00,meteohub,2013-04-30 11:13:00,
2013-04-30 07:18:00,52.7,46.4,30.30,ENE,58,7.0,7.0,79,0.00,,,0.00,meteohub,2013-04-30 11:18:00,
2013-04-30 07:23:00,52.9,45.9,30.30,ESE,114,1.0,8.0,77,0.00,,,0.00,meteohub,2013-04-30 11:23:00,
2013-04-30 07:28:00,53.1,46.0,30.30,ESE,114,4.0,8.0,77,0.00,,,0.00,meteohub,2013-04-30 11:28:00,
2013-04-30 07:33:00,52.9,45.9,30.30,SE,134,4.0,9.0,77,0.00,,,0.00,meteohub,2013-04-30 11:33:00,
2013-04-30 07:38:00,52.9,45.9,30.30,SE,140,5.0,9.0,77,0.00,,,0.00,meteohub,2013-04-30 11:38:00,
2013-04-30 07:43:00,52.9,45.5,30.30,SSE,153,5.0,9.0,76,0.00,,,0.00,meteohub,2013-04-30 11:43:00,
2013-04-30 07:48:00,53.1,46.0,30.30,ESE,116,3.0,9.0,77,0.00,,,0.00,meteohub,2013-04-30 11:48:00,
2013-04-30 07:53:00,53.2,45.9,30.31,SSE,154,5.0,9.0,76,0.00,,,0.00,meteohub,2013-04-30 11:53:00,
2013-04-30 07:58:00,53.2,45.9,30.31,SE,139,5.0,7.0,76,0.00,,,0.00,meteohub,2013-04-30 11:58:00,
2013-04-30 08:03:00,53.2,45.5,30.31,ESE,116,4.0,7.0,75,0.00,,,0.00,meteohub,2013-04-30 12:03:00,
2013-04-30 08:08:00,53.4,45.7,30.31,SE,138,10.0,10.0,75,0.00,,,0.00,meteohub,2013-04-30 12:08:00,
2013-04-30 08:13:00,53.4,45.7,30.31,SE,131,4.0,10.0,75,0.00,,,0.00,meteohub,2013-04-30 12:13:00,
2013-04-30 08:18:00,53.6,45.5,30.31,SE,136,4.0,10.0,74,0.00,,,0.00,meteohub,2013-04-30 12:18:00,
2013-04-30 08:23:00,53.6,45.5,30.32,ESE,122,3.0,11.0,74,0.00,,,0.00,meteohub,2013-04-30 12:23:00,
2013-04-30 08:28:00,54.0,45.9,30.32,SE,126,6.0,11.0,74,0.00,,,0.00,meteohub,2013-04-30 12:28:00,
2013-04-30 08:33:00,54.0,45.5,30.32,SSE,151,8.0,11.0,73,0.00,,,0.00,meteohub,2013-04-30 12:33:00,
2013-04-30 08:38:00,54.0,45.5,30.32,ESE,122,5.0,10.0,73,0.00,,,0.00,meteohub,2013-04-30 12:38:00,
2013-04-30 08:43:00,54.0,45.5,30.32,SSE,156,3.0,11.0,73,0.00,,,0.00,meteohub,2013-04-30 12:43:00,
2013-04-30 08:48:00,54.0,45.5,30.32,SE,139,8.0,12.0,73,0.00,,,0.00,meteohub,2013-04-30 12:48:00,
2013-04-30 08:53:00,54.0,45.5,30.32,SE,145,1.0,12.0,73,0.00,,,0.00,meteohub,2013-04-30 12:53:00,
2013-04-30 08:58:00,54.3,45.9,30.32,ESE,112,4.0,14.0,73,0.00,,,0.00,meteohub,2013-04-30 12:58:00,
2013-04-30 09:03:00,54.5,46.0,30.32,East,100,3.0,14.0,73,0.00,,,0.00,meteohub,2013-04-30 13:03:00,
2013-04-30 09:08:00,54.7,46.2,30.33,ESE,114,4.0,10.0,73,0.00,,,0.00,meteohub,2013-04-30 13:08:00,
2013-04-30 09:13:00,54.7,45.9,30.33,SE,135,10.0,10.0,72,0.00,,,0.00,meteohub,2013-04-30 13:13:00,
2013-04-30 09:18:00,54.7,45.9,30.33,ESE,112,7.0,10.0,72,0.00,,,0.00,meteohub,2013-04-30 13:18:00,
2013-04-30 09:23:00,54.5,46.0,30.33,East,87,3.0,11.0,73,0.00,,,0.00,meteohub,2013-04-30 13:23:00,
2013-04-30 09:28:00,54.9,46.0,30.33,SE,132,8.0,11.0,72,0.00,,,0.00,meteohub,2013-04-30 13:28:00,
2013-04-30 09:33:00,54.9,46.0,30.33,SE,145,7.0,11.0,72,0.00,,,0.00,meteohub,2013-04-30 13:33:00,
2013-04-30 09:38:00,54.7,45.9,30.33,SE,124,6.0,11.0,72,0.00,,,0.00,meteohub,2013-04-30 13:38:00,
2013-04-30 09:43:00,54.9,46.4,30.33,SE,141,6.0,11.0,73,0.00,,,0.00,meteohub,2013-04-30 13:43:00,
2013-04-30 09:48:00,54.9,45.7,30.33,East,99,6.0,10.0,71,0.00,,,0.00,meteohub,2013-04-30 13:48:00,
2013-04-30 09:53:00,54.7,45.5,30.33,SE,139,7.0,12.0,71,0.00,,,0.00,meteohub,2013-04-30 13:53:00,
2013-04-30 09:58:00,54.7,45.5,30.33,SE,143,8.0,12.0,71,0.00,,,0.00,meteohub,2013-04-30 13:58:00,
2013-04-30 10:03:00,54.9,45.7,30.33,ESE,110,5.0,12.0,71,0.00,,,0.00,meteohub,2013-04-30 14:03:00,
2013-04-30 10:08:00,54.7,45.5,30.33,ESE,116,9.0,12.0,71,0.00,,,0.00,meteohub,2013-04-30 14:08:00,
2013-04-30 10:13:00,55.0,46.2,30.33,SE,142,6.0,12.0,72,0.00,,,0.00,meteohub,2013-04-30 14:13:00,
2013-04-30 10:18:00,54.9,45.7,30.33,ESE,103,5.0,12.0,71,0.00,,,0.00,meteohub,2013-04-30 14:18:00,
2013-04-30 10:23:00,54.9,45.3,30.33,ESE,107,8.0,12.0,70,0.00,,,0.00,meteohub,2013-04-30 14:23:00,
2013-04-30 10:28:00,54.9,45.3,30.33,SSE,147,7.0,12.0,70,0.00,,,0.00,meteohub,2013-04-30 14:28:00,
2013-04-30 10:33:00,54.9,45.0,30.33,ESE,116,7.0,12.0,69,0.00,,,0.00,meteohub,2013-04-30 14:33:00,
2013-04-30 10:38:00,55.0,45.5,30.34,East,96,3.0,13.0,70,0.00,,,0.00,meteohub,2013-04-30 14:38:00,
2013-04-30 10:43:00,55.6,45.5,30.34,SE,135,9.0,13.0,69,0.00,,,0.00,meteohub,2013-04-30 14:43:00,
2013-04-30 10:48:00,55.2,44.4,30.34,SE,134,6.0,14.0,67,0.00,,,0.00,meteohub,2013-04-30 14:48:00,
2013-04-30 10:53:00,55.0,44.6,30.34,ESE,108,8.0,14.0,68,0.00,,,0.00,meteohub,2013-04-30 14:53:00,
2013-04-30 10:58:00,55.0,45.5,30.34,SE,133,9.0,14.0,70,0.00,,,0.00,meteohub,2013-04-30 14:58:00,
2013-04-30 11:03:00,55.0,44.6,30.34,ESE,110,10.0,13.0,68,0.00,,,0.00,meteohub,2013-04-30 15:03:00,
2013-04-30 11:08:00,55.0,44.2,30.35,ESE,119,4.0,14.0,67,0.00,,,0.00,meteohub,2013-04-30 15:08:00,
2013-04-30 11:13:00,54.9,44.4,30.35,ESE,116,10.0,16.0,68,0.00,,,0.00,meteohub,2013-04-30 15:13:00,
2013-04-30 11:18:00,54.9,44.1,30.34,SE,143,6.0,16.0,67,0.00,,,0.00,meteohub,2013-04-30 15:18:00,
2013-04-30 11:23:00,55.0,45.5,30.34,SE,136,7.0,16.0,70,0.00,,,0.00,meteohub,2013-04-30 15:23:00,
2013-04-30 11:28:00,55.2,44.4,30.34,East,97,6.0,14.0,67,0.00,,,0.00,meteohub,2013-04-30 15:28:00,
2013-04-30 11:33:00,55.2,44.4,30.34,ENE,68,5.0,14.0,67,0.00,,,0.00,meteohub,2013-04-30 15:33:00,
2013-04-30 11:38:00,55.2,44.8,30.34,SE,127,6.0,12.0,68,0.00,,,0.00,meteohub,2013-04-30 15:38:00,
2013-04-30 11:43:00,55.6,44.4,30.34,East,100,7.0,12.0,66,0.00,,,0.00,meteohub,2013-04-30 15:43:00,
2013-04-30 11:48:00,55.2,44.8,30.34,East,97,7.0,15.0,68,0.00,,,0.00,meteohub,2013-04-30 15:48:00,
2013-04-30 11:53:00,55.6,45.1,30.34,ESE,106,7.0,15.0,68,0.00,,,0.00,meteohub,2013-04-30 15:53:00,
2013-04-30 11:58:00,55.8,45.7,30.34,ENE,74,5.0,15.0,69,0.00,,,0.00,meteohub,2013-04-30 15:58:00,
2013-04-30 12:03:00,55.8,44.6,30.34,ESE,104,9.0,12.0,66,0.00,,,0.00,meteohub,2013-04-30 16:03:00,
2013-04-30 12:08:00,55.4,43.9,30.34,ESE,109,8.0,15.0,65,0.00,,,0.00,meteohub,2013-04-30 16:08:00,
2013-04-30 12:13:00,55.0,43.2,30.34,SE,143,10.0,15.0,64,0.00,,,0.00,meteohub,2013-04-30 16:13:00,
2013-04-30 12:18:00,55.0,43.5,30.34,East,81,8.0,15.0,65,0.00,,,0.00,meteohub,2013-04-30 16:18:00,
2013-04-30 12:23:00,55.0,42.6,30.34,SE,131,7.0,15.0,63,0.00,,,0.00,meteohub,2013-04-30 16:23:00,
2013-04-30 12:28:00,54.9,43.3,30.34,ESE,122,9.0,15.0,65,0.00,,,0.00,meteohub,2013-04-30 16:28:00,
2013-04-30 12:33:00,55.0,42.3,30.34,SSE,153,8.0,15.0,62,0.00,,,0.00,meteohub,2013-04-30 16:33:00,
2013-04-30 12:38:00,55.0,44.6,30.34,SE,141,13.0,15.0,68,0.00,,,0.00,meteohub,2013-04-30 16:38:00,
2013-04-30 12:43:00,54.9,44.1,30.34,SE,139,11.0,16.0,67,0.00,,,0.00,meteohub,2013-04-30 16:43:00,
2013-04-30 12:48:00,54.9,43.0,30.34,SE,132,10.0,17.0,64,0.00,,,0.00,meteohub,2013-04-30 16:48:00,
2013-04-30 12:53:00,55.0,43.9,30.34,SE,135,11.0,17.0,66,0.00,,,0.00,meteohub,2013-04-30 16:53:00,
2013-04-30 12:58:00,55.0,43.9,30.34,SE,138,9.0,15.0,66,0.00,,,0.00,meteohub,2013-04-30 16:58:00,
2013-04-30 13:03:00,54.9,42.1,30.34,SE,139,12.0,16.0,62,0.00,,,0.00,meteohub,2013-04-30 17:03:00,
2013-04-30 13:08:00,54.9,42.4,30.34,SSE,149,7.0,16.0,63,0.00,,,0.00,meteohub,2013-04-30 17:08:00,
2013-04-30 13:13:00,55.2,43.3,30.34,SE,143,9.0,16.0,64,0.00,,,0.00,meteohub,2013-04-30 17:13:00,
2013-04-30 13:18:00,55.4,42.6,30.34,SE,139,4.0,16.0,62,0.00,,,0.00,meteohub,2013-04-30 17:18:00,
2013-04-30 13:23:00,55.0,43.2,30.34,SSE,147,9.0,16.0,64,0.00,,,0.00,meteohub,2013-04-30 17:23:00,
2013-04-30 13:28:00,55.2,43.7,30.34,ESE,120,11.0,15.0,65,0.00,,,0.00,meteohub,2013-04-30 17:28:00,
2013-04-30 13:33:00,55.0,41.4,30.34,ESE,114,8.0,15.0,60,0.00,,,0.00,meteohub,2013-04-30 17:33:00,
2013-04-30 13:38:00,55.2,42.8,30.34,SE,124,6.0,15.0,63,0.00,,,0.00,meteohub,2013-04-30 17:38:00,
2013-04-30 13:44:00,55.2,42.8,30.34,SE,137,13.0,15.0,63,0.00,,,0.00,meteohub,2013-04-30 17:44:00,
2013-04-30 13:49:00,55.2,43.3,30.34,SE,133,12.0,17.0,64,0.00,,,0.00,meteohub,2013-04-30 17:49:00,
2013-04-30 13:54:00,55.2,44.1,30.34,SE,133,11.0,17.0,66,0.00,,,0.00,meteohub,2013-04-30 17:54:00,
2013-04-30 13:59:00,55.0,42.6,30.34,SE,142,9.0,17.0,63,0.00,,,0.00,meteohub,2013-04-30 17:59:00,
2013-04-30 14:04:00,55.0,42.3,30.34,ESE,114,14.0,15.0,62,0.00,,,0.00,meteohub,2013-04-30 18:04:00,
2013-04-30 14:09:00,55.0,42.3,30.34,SE,126,9.0,15.0,62,0.00,,,0.00,meteohub,2013-04-30 18:09:00,
2013-04-30 14:14:00,55.2,44.1,30.33,SE,139,12.0,16.0,66,0.00,,,0.00,meteohub,2013-04-30 18:14:00,
2013-04-30 14:19:00,55.0,43.2,30.34,SE,131,6.0,16.0,64,0.00,,,0.00,meteohub,2013-04-30 18:19:00,
2013-04-30 14:24:00,54.9,42.4,30.34,SE,139,9.0,16.0,63,0.00,,,0.00,meteohub,2013-04-30 18:24:00,
2013-04-30 14:29:00,54.9,43.7,30.34,ESE,107,7.0,16.0,66,0.00,,,0.00,meteohub,2013-04-30 18:29:00,
2013-04-30 14:34:00,54.9,42.1,30.34,SE,135,12.0,16.0,62,0.00,,,0.00,meteohub,2013-04-30 18:34:00,
2013-04-30 14:39:00,55.0,42.6,30.34,SE,131,11.0,16.0,63,0.00,,,0.00,meteohub,2013-04-30 18:39:00,
2013-04-30 14:44:00,54.7,42.8,30.34,SSE,154,11.0,15.0,64,0.00,,,0.00,meteohub,2013-04-30 18:44:00,
2013-04-30 14:49:00,54.7,42.8,30.34,SE,141,9.0,15.0,64,0.00,,,0.00,meteohub,2013-04-30 18:49:00,
2013-04-30 14:54:00,54.9,42.4,30.33,SE,136,8.0,15.0,63,0.00,,,0.00,meteohub,2013-04-30 18:54:00,
2013-04-30 14:59:00,54.7,43.5,30.33,SE,131,10.0,15.0,66,0.00,,,0.00,meteohub,2013-04-30 18:59:00,
2013-04-30 15:04:00,54.9,43.0,30.33,SE,130,12.0,15.0,64,0.00,,,0.00,meteohub,2013-04-30 19:04:00,
2013-04-30 15:09:00,54.5,42.6,30.33,East,83,5.0,15.0,64,0.00,,,0.00,meteohub,2013-04-30 19:09:00,
2013-04-30 15:14:00,54.3,42.4,30.33,SE,137,11.0,14.0,64,0.00,,,0.00,meteohub,2013-04-30 19:14:00,
2013-04-30 15:19:00,54.3,41.2,30.33,SE,140,9.0,16.0,61,0.00,,,0.00,meteohub,2013-04-30 19:19:00,
2013-04-30 15:24:00,54.3,41.5,30.33,ESE,119,10.0,16.0,62,0.00,,,0.00,meteohub,2013-04-30 19:24:00,
2013-04-30 15:29:00,54.9,41.7,30.33,SE,143,11.0,16.0,61,0.00,,,0.00,meteohub,2013-04-30 19:29:00,
2013-04-30 15:34:00,54.7,41.9,30.33,SE,133,11.0,15.0,62,0.00,,,0.00,meteohub,2013-04-30 19:34:00,
2013-04-30 15:39:00,54.9,42.4,30.33,SE,140,10.0,16.0,63,0.00,,,0.00,meteohub,2013-04-30 19:39:00,
2013-04-30 15:44:00,54.9,42.1,30.33,SE,135,6.0,16.0,62,0.00,,,0.00,meteohub,2013-04-30 19:44:00,
2013-04-30 15:49:00,55.2,42.1,30.33,SE,138,9.0,16.0,61,0.00,,,0.00,meteohub,2013-04-30 19:49:00,
2013-04-30 15:54:00,55.2,41.2,30.33,SE,126,9.0,13.0,59,0.00,,,0.00,meteohub,2013-04-30 19:54:00,
2013-04-30 15:59:00,55.0,41.0,30.34,SE,140,6.0,13.0,59,0.00,,,0.00,meteohub,2013-04-30 19:59:00,
2013-04-30 16:04:00,54.7,40.3,30.33,SE,146,7.0,13.0,58,0.00,,,0.00,meteohub,2013-04-30 20:04:00,
2013-04-30 16:09:00,54.9,40.8,30.34,SE,137,9.0,13.0,59,0.00,,,0.00,meteohub,2013-04-30 20:09:00,
2013-04-30 16:14:00,55.0,40.1,30.33,SE,129,7.0,13.0,57,0.00,,,0.00,meteohub,2013-04-30 20:14:00,
2013-04-30 16:19:00,55.0,41.0,30.34,SSE,147,7.0,13.0,59,0.00,,,0.00,meteohub,2013-04-30 20:19:00,
2013-04-30 16:24:00,55.6,40.6,30.34,SSE,151,8.0,13.0,57,0.00,,,0.00,meteohub,2013-04-30 20:24:00,
2013-04-30 16:29:00,55.6,39.2,30.33,ESE,112,1.0,13.0,54,0.00,,,0.00,meteohub,2013-04-30 20:29:00,
2013-04-30 16:34:00,55.8,39.9,30.34,SE,132,6.0,12.0,55,0.00,,,0.00,meteohub,2013-04-30 20:34:00,
2013-04-30 16:39:00,55.8,39.9,30.34,East,95,2.0,12.0,55,0.00,,,0.00,meteohub,2013-04-30 20:39:00,
2013-04-30 16:44:00,55.9,39.0,30.34,SE,126,6.0,11.0,53,0.00,,,0.00,meteohub,2013-04-30 20:44:00,
2013-04-30 16:49:00,56.1,39.7,30.34,SE,137,10.0,11.0,54,0.00,,,0.00,meteohub,2013-04-30 20:49:00,
2013-04-30 16:54:00,55.9,38.1,30.34,SE,139,10.0,11.0,51,0.00,,,0.00,meteohub,2013-04-30 20:54:00,
2013-04-30 16:59:00,55.6,38.3,30.34,ESE,119,8.0,13.0,52,0.00,,,0.00,meteohub,2013-04-30 20:59:00,
2013-04-30 17:04:00,55.8,38.5,30.33,SE,128,7.0,13.0,52,0.00,,,0.00,meteohub,2013-04-30 21:04:00,
2013-04-30 17:09:00,55.8,37.9,30.33,SE,137,10.0,13.0,51,0.00,,,0.00,meteohub,2013-04-30 21:09:00,
2013-04-30 17:14:00,55.6,39.2,30.34,SE,137,8.0,13.0,54,0.00,,,0.00,meteohub,2013-04-30 21:14:00,
2013-04-30 17:19:00,55.6,39.7,30.34,SE,137,6.0,12.0,55,0.00,,,0.00,meteohub,2013-04-30 21:19:00,
2013-04-30 17:24:00,55.2,37.4,30.34,SE,134,10.0,12.0,51,0.00,,,0.00,meteohub,2013-04-30 21:24:00,
2013-04-30 17:29:00,55.0,38.7,30.34,SE,134,5.0,12.0,54,0.00,,,0.00,meteohub,2013-04-30 21:29:00,
2013-04-30 17:34:00,55.2,38.8,30.34,SE,143,8.0,11.0,54,0.00,,,0.00,meteohub,2013-04-30 21:34:00,
2013-04-30 17:39:00,55.2,38.3,30.34,SE,143,6.0,11.0,53,0.00,,,0.00,meteohub,2013-04-30 21:39:00,
2013-04-30 17:44:00,55.0,38.3,30.34,SSE,147,10.0,10.0,53,0.00,,,0.00,meteohub,2013-04-30 21:44:00,
2013-04-30 17:49:00,55.0,38.7,30.34,SE,145,9.0,11.0,54,0.00,,,0.00,meteohub,2013-04-30 21:49:00,
2013-04-30 17:54:00,55.0,39.6,30.34,SE,142,7.0,11.0,56,0.00,,,0.00,meteohub,2013-04-30 21:54:00,
2013-04-30 17:59:00,55.2,39.7,30.34,SE,146,7.0,11.0,56,0.00,,,0.00,meteohub,2013-04-30 21:59:00,
2013-04-30 18:04:00,55.2,39.7,30.34,SE,144,8.0,11.0,56,0.00,,,0.00,meteohub,2013-04-30 22:04:00,
2013-04-30 18:09:00,55.0,39.6,30.35,SE,143,9.0,9.0,56,0.00,,,0.00,meteohub,2013-04-30 22:09:00,
2013-04-30 18:14:00,55.0,39.2,30.35,SE,132,3.0,10.0,55,0.00,,,0.00,meteohub,2013-04-30 22:14:00,
2013-04-30 18:19:00,55.0,40.1,30.34,SE,135,6.0,10.0,57,0.00,,,0.00,meteohub,2013-04-30 22:19:00,
2013-04-30 18:24:00,54.7,40.6,30.34,SSE,147,4.0,10.0,59,0.00,,,0.00,meteohub,2013-04-30 22:24:00,
2013-04-30 18:29:00,54.7,39.4,30.35,SE,145,5.0,10.0,56,0.00,,,0.00,meteohub,2013-04-30 22:29:00,
2013-04-30 18:34:00,54.3,39.0,30.35,SE,129,3.0,10.0,56,0.00,,,0.00,meteohub,2013-04-30 22:34:00,
2013-04-30 18:39:00,54.3,39.9,30.35,SE,137,4.0,10.0,58,0.00,,,0.00,meteohub,2013-04-30 22:39:00,
2013-04-30 18:44:00,54.3,40.3,30.35,SE,143,7.0,10.0,59,0.00,,,0.00,meteohub,2013-04-30 22:44:00,
2013-04-30 18:49:00,54.1,40.6,30.35,SE,131,5.0,10.0,60,0.00,,,0.00,meteohub,2013-04-30 22:49:00,
2013-04-30 18:54:00,54.0,39.9,30.35,SE,136,4.0,9.0,59,0.00,,,0.00,meteohub,2013-04-30 22:54:00,
2013-04-30 18:59:00,54.0,39.9,30.35,SE,127,5.0,9.0,59,0.00,,,0.00,meteohub,2013-04-30 22:59:00,
2013-04-30 19:04:00,53.8,40.6,30.35,SE,145,5.0,7.0,61,0.00,,,0.00,meteohub,2013-04-30 23:04:00,
2013-04-30 19:09:00,53.6,39.6,30.35,SE,140,5.0,7.0,59,0.00,,,0.00,meteohub,2013-04-30 23:09:00,
2013-04-30 19:14:00,53.4,39.9,30.35,SE,136,5.0,7.0,60,0.00,,,0.00,meteohub,2013-04-30 23:14:00,
2013-04-30 19:19:00,53.2,40.1,30.35,SE,131,4.0,7.0,61,0.00,,,0.00,meteohub,2013-04-30 23:19:00,
2013-04-30 19:24:00,53.1,39.9,30.35,SE,135,3.0,7.0,61,0.00,,,0.00,meteohub,2013-04-30 23:24:00,
2013-04-30 19:29:00,52.9,39.7,30.35,SE,135,2.0,6.0,61,0.00,,,0.00,meteohub,2013-04-30 23:29:00,
2013-04-30 19:34:00,52.5,39.4,30.35,SE,134,1.0,6.0,61,0.00,,,0.00,meteohub,2013-04-30 23:34:00,
2013-04-30 19:39:00,52.3,40.1,30.35,SE,134,0.0,4.0,63,0.00,,,0.00,meteohub,2013-04-30 23:39:00,
2013-04-30 19:44:00,52.2,39.6,30.35,SE,134,0.0,3.0,62,0.00,,,0.00,meteohub,2013-04-30 23:44:00,
2013-04-30 19:49:00,52.0,39.7,30.35,SE,134,1.0,3.0,63,0.00,,,0.00,meteohub,2013-04-30 23:49:00,
2013-04-30 19:54:00,51.8,40.5,30.35,SE,134,1.0,2.0,65,0.00,,,0.00,meteohub,2013-04-30 23:54:00,
2013-04-30 19:59:00,51.6,39.4,30.35,SE,134,0.0,3.0,63,0.00,,,0.00,meteohub,2013-04-30 23:59:00,
2013-04-30 20:04:00,51.4,39.7,30.35,SE,134,0.0,3.0,64,0.00,,,0.00,meteohub,2013-05-01 00:04:00,
2013-04-30 20:10:00,51.3,40.3,30.35,SE,133,0.0,2.0,66,0.00,,,0.00,meteohub,2013-05-01 00:10:00,
2013-04-30 20:15:00,50.9,39.9,30.35,SE,133,0.0,2.0,66,0.00,,,0.00,meteohub,2013-05-01 00:15:00,
2013-04-30 20:20:00,50.4,40.6,30.35,SE,134,0.0,2.0,69,0.00,,,0.00,meteohub,2013-05-01 00:20:00,
2013-04-30 20:25:00,49.6,41.0,30.35,SE,134,1.0,1.0,72,0.00,,,0.00,meteohub,2013-05-01 00:25:00,
2013-04-30 20:30:00,49.1,40.5,30.36,SE,134,0.0,1.0,72,0.00,,,0.00,meteohub,2013-05-01 00:30:00,
2013-04-30 20:35:00,48.7,40.5,30.36,SE,133,0.0,2.0,73,0.00,,,0.00,meteohub,2013-05-01 00:35:00,
2013-04-30 20:40:00,48.4,39.7,30.36,SE,133,0.0,2.0,72,0.00,,,0.00,meteohub,2013-05-01 00:40:00,
2013-04-30 20:45:00,48.0,39.4,30.36,SE,134,0.0,2.0,72,0.00,,,0.00,meteohub,2013-05-01 00:45:00,
2013-04-30 20:50:00,47.8,39.2,30.36,SE,134,0.0,0.0,72,0.00,,,0.00,meteohub,2013-05-01 00:50:00,
2013-04-30 20:55:00,47.5,39.2,30.36,SE,134,0.0,0.0,73,0.00,,,0.00,meteohub,2013-05-01 00:55:00,
2013-04-30 21:00:00,47.1,38.8,30.36,SE,134,0.0,0.0,73,0.00,,,0.00,meteohub,2013-05-01 01:00:00,
2013-04-30 21:05:00,46.9,39.0,30.36,SE,134,0.0,0.0,74,0.00,,,0.00,meteohub,2013-05-01 01:05:00,
2013-04-30 21:10:00,46.6,38.7,30.36,SE,134,0.0,0.0,74,0.00,,,0.00,meteohub,2013-05-01 01:10:00,
2013-04-30 21:15:00,46.2,38.5,30.36,SE,133,0.0,0.0,74,0.00,,,0.00,meteohub,2013-05-01 01:15:00,
2013-04-30 21:20:00,45.9,38.3,30.36,SE,133,0.0,1.0,75,0.00,,,0.00,meteohub,2013-05-01 01:20:00,
2013-04-30 21:25:00,45.7,38.3,30.36,SE,134,0.0,2.0,75,0.00,,,0.00,meteohub,2013-05-01 01:25:00,
2013-04-30 21:30:00,45.3,38.1,30.36,SE,134,0.0,2.0,76,0.00,,,0.00,meteohub,2013-05-01 01:30:00,
2013-04-30 21:35:00,45.1,38.3,30.36,SE,134,0.0,2.0,77,0.00,,,0.00,meteohub,2013-05-01 01:35:00,
2013-04-30 21:40:00,45.1,39.0,30.36,SE,133,0.0,0.0,79,0.00,,,0.00,meteohub,2013-05-01 01:40:00,
2013-04-30 21:45:00,45.0,38.8,30.36,SE,134,0.0,0.0,79,0.00,,,0.00,meteohub,2013-05-01 01:45:00,
2013-04-30 21:50:00,44.8,38.7,30.36,SE,133,0.0,0.0,79,0.00,,,0.00,meteohub,2013-05-01 01:50:00,
2013-04-30 21:55:00,44.4,38.3,30.36,SE,133,1.0,1.0,79,0.00,,,0.00,meteohub,2013-05-01 01:55:00,
2013-04-30 22:00:00,44.1,37.6,30.36,SE,133,0.0,2.0,78,0.00,,,0.00,meteohub,2013-05-01 02:00:00,
2013-04-30 22:05:00,43.9,37.4,30.36,SE,133,0.0,2.0,78,0.00,,,0.00,meteohub,2013-05-01 02:05:00,
2013-04-30 22:10:00,43.9,37.8,30.36,SE,133,0.0,2.0,79,0.00,,,0.00,meteohub,2013-05-01 02:10:00,
2013-04-30 22:15:00,43.5,37.4,30.36,SE,133,1.0,2.0,79,0.00,,,0.00,meteohub,2013-05-01 02:15:00,
2013-04-30 22:20:00,43.3,37.2,30.36,SE,133,0.0,2.0,79,0.00,,,0.00,meteohub,2013-05-01 02:20:00,
2013-04-30 22:25:00,43.2,37.0,30.36,SE,133,0.0,2.0,79,0.00,,,0.00,meteohub,2013-05-01 02:25:00,
2013-04-30 22:30:00,43.0,36.9,30.36,SE,134,0.0,2.0,79,0.00,,,0.00,meteohub,2013-05-01 02:30:00,
2013-04-30 22:35:00,42.6,36.9,30.36,SE,134,0.0,2.0,80,0.00,,,0.00,meteohub,2013-05-01 02:35:00,
2013-04-30 22:40:00,42.6,36.9,30.36,SE,134,0.0,1.0,80,0.00,,,0.00,meteohub,2013-05-01 02:40:00,
2013-04-30 22:45:00,42.4,36.7,30.36,SE,133,0.0,1.0,80,0.00,,,0.00,meteohub,2013-05-01 02:45:00,
2013-04-30 22:50:00,42.1,36.7,30.36,SE,133,0.0,0.0,81,0.00,,,0.00,meteohub,2013-05-01 02:50:00,
2013-04-30 22:55:00,41.7,36.7,30.36,SE,133,1.0,1.0,82,0.00,,,0.00,meteohub,2013-05-01 02:55:00,
2013-04-30 23:00:00,41.7,36.9,30.36,SE,134,0.0,1.0,83,0.00,,,0.00,meteohub,2013-05-01 03:00:00,
2013-04-30 23:05:00,41.5,36.7,30.35,SE,134,0.0,1.0,83,0.00,,,0.00,meteohub,2013-05-01 03:05:00,
2013-04-30 23:10:00,41.4,36.5,30.35,SE,134,1.0,1.0,83,0.00,,,0.00,meteohub,2013-05-01 03:10:00,
2013-04-30 23:15:00,41.2,36.7,30.35,SE,134,0.0,1.0,84,0.00,,,0.00,meteohub,2013-05-01 03:15:00,
2013-04-30 23:20:00,41.2,36.7,30.35,SE,134,0.0,1.0,84,0.00,,,0.00,meteohub,2013-05-01 03:20:00,
2013-04-30 23:25:00,41.0,36.5,30.35,SE,134,0.0,1.0,84,0.00,,,0.00,meteohub,2013-05-01 03:25:00,
2013-04-30 23:30:00,41.0,36.9,30.35,SE,133,0.0,1.0,85,0.00,,,0.00,meteohub,2013-05-01 03:30:00,
2013-04-30 23:35:00,40.8,36.3,30.35,SE,133,1.0,0.0,84,0.00,,,0.00,meteohub,2013-05-01 03:35:00,
2013-04-30 23:40:00,40.6,36.5,30.36,SE,133,0.0,1.0,85,0.00,,,0.00,meteohub,2013-05-01 03:40:00,
2013-04-30 23:45:00,40.6,36.5,30.36,SE,134,0.0,1.0,85,0.00,,,0.00,meteohub,2013-05-01 03:45:00,
2013-04-30 23:50:00,40.5,36.3,30.36,SE,134,0.0,1.0,85,0.00,,,0.00,meteohub,2013-05-01 03:50:00,
2013-04-30 23:55:00,40.5,36.3,30.36,SE,133,0.0,1.0,85,0.00,,,0.00,meteohub,2013-05-01 03:55:00,